Flag for U.S.A. Weather past 2 weeks in Provincetown, Massachusetts, U.S.A.

Now
59 °F

Sunny.


Feels Like: 56 °F
Forecast: 55 / 62 °F
Wind: 14 mph from North

Location: Provincetown Weather Reporting Station

Current Time: Oct 23, 2014 at 10:05:40 AM

Latest Report: Oct 23, 2014 at 9:35 AM


Visibility: 5 mi

Pressure: 29.55 "Hg

Humidity: 10%

Dew point: 3 °F

Location of ProvincetownLocation

Historic Weather in Provincetown — Graph

°F

Provincetown temperature yesterday

Maximum temperature yesterday: 57 °F (at 12:15 AM)
Minimum temperature yesterday: 55 °F (at 12:35 AM)
Average temperature yesterday: 56 °F

Past Weeks' High & Low Weather Summary

 TemperatureHumidityPressure
High75 °F (Oct 15, 12:15 PM)94% (Oct 8, 9:55 AM)30.39 "Hg (Oct 8, 9:55 AM)
Low43 °F (Oct 12, 7:15 PM)10% (Oct 23, 6:35 AM)29.51 "Hg (Oct 18, 3:35 PM)
Average59 °F73%29.97 "Hg
* Reported Oct 8 8:35 AM — Oct 23 8:55 AM, Provincetown, Weather by CustomWeather, © 2014

Note: Actual official high and low records may vary slightly from our data, if they occured in-between our weather recording intervals... More about our weather records

Advertising

Provincetown weather history for previous 24 hours

 ConditionsComfort  
Time TempWeatherWind HumidityBarometerVisibility
8:55 AM
Oct 23
57 °FSunny.15 mph11%29.56 "Hg7 mi
8:35 AM57 °FPassing clouds.17 mph11%29.55 "Hg7 mi
8:15 AM57 °FScattered clouds.16 mph11%29.54 "Hg5 mi
7:55 AM55 °FPartly cloudy.16 mph11%29.55 "Hg3 mi
7:35 AM55 °FMostly cloudy.18 mph11%29.56 "Hg4 mi
7:15 AM55 °FPartly cloudy.17 mph11%29.57 "Hg3 mi
6:55 AM57 °FMostly cloudy.15 mph11%29.57 "Hg3 mi
6:35 AM57 °FOvercast.12 mph10%29.61 "Hg2 mi
6:15 AM55 °FOvercast.7 mph12%29.62 "Hg2 mi
5:55 AM55 °FPartly cloudy.9 mph12%29.63 "Hg3 mi
5:35 AM55 °FMostly cloudy.14 mph12%29.61 "Hg4 mi
5:15 AM57 °FPartly cloudy.17 mph11%29.60 "Hg4 mi
4:55 AM57 °FPartly cloudy.16 mph11%29.61 "Hg3 mi
4:35 AM57 °FMostly cloudy.21 mph11%29.61 "Hg3 mi
4:15 AM57 °FLow clouds.21 mph88%29.61 "Hg2 mi
3:55 AM57 °FMostly cloudy.23 mph94%29.62 "Hg2 mi
3:35 AM57 °FThundershowers. Overcast.20 mph94%29.63 "Hg2 mi
3:15 AM57 °FLow clouds.23 mph94%29.65 "Hg2 mi
2:55 AM57 °FThundershowers. Mostly cloudy.22 mph94%29.64 "Hg2 mi
2:35 AM57 °FThundershowers. Mostly cloudy.21 mph88%29.64 "Hg2 mi
2:15 AM57 °FLow clouds.22 mph88%29.65 "Hg2 mi
1:55 AM57 °FThunderstorms. Low clouds.24 mph88%29.67 "Hg2 mi
1:35 AM57 °FThundershowers. Low clouds.24 mph88%29.68 "Hg3 mi
1:15 AM57 °FLow clouds.26 mph88%29.69 "Hg4 mi
12:55 AM57 °FLow clouds.21 mph88%29.70 "Hg4 mi
12:35 AM57 °FLow clouds.21 mph88%29.71 "Hg3 mi
12:15 AM55 °FLow clouds.26 mph94%29.71 "Hg3 mi
11:55 PM
Oct 22
55 °FLow clouds.33 mph94%29.70 "Hg3 mi
11:35 PM55 °FMostly cloudy.31 mph94%29.71 "Hg3 mi
11:15 PM55 °FLow clouds.25 mph94%29.73 "Hg5 mi
10:55 PM55 °FLow clouds.28 mph94%29.74 "Hg5 mi
10:35 PM55 °FLow clouds.28 mph94%29.75 "Hg4 mi
10:15 PM55 °FLow clouds.28 mph94%29.76 "Hg3 mi
9:55 PM55 °FLow clouds.28 mph94%29.76 "Hg3 mi
9:35 PM55 °FLow clouds.31 mph94%29.76 "Hg5 mi
9:15 PM55 °FLow clouds.31 mph94%29.76 "Hg3 mi
8:55 PM55 °FLow clouds.29 mph94%29.77 "Hg2 mi
8:35 PM55 °FLow clouds.26 mph88%29.78 "Hg3 mi
8:15 PM55 °FLow clouds.28 mph94%29.77 "Hg2 mi
7:55 PM55 °FLow clouds.25 mph94%29.78 "Hg5 mi
7:35 PM55 °FLow clouds.28 mph94%29.79 "Hg4 mi
7:15 PM55 °FLow clouds.30 mph94%29.80 "Hg3 mi
6:55 PM55 °FLow clouds.24 mph94%29.80 "Hg3 mi
6:35 PM57 °FLow clouds.26 mph88%29.81 "Hg4 mi
6:15 PM57 °FLow clouds.24 mph88%29.80 "Hg4 mi
5:55 PM57 °FLow clouds.25 mph88%29.80 "Hg4 mi
5:35 PM57 °FMostly cloudy.21 mph88%29.80 "Hg1 mi
5:15 PM57 °FMostly cloudy.20 mph88%29.82 "Hg1 mi
4:55 PM57 °FMostly cloudy.15 mph94%29.82 "Hg1 mi
4:35 PM57 °FLow clouds.16 mph94%29.82 "Hg1 mi
4:15 PM57 °FLow clouds.17 mph88%29.82 "Hg1 mi
3:55 PM55 °FLow clouds.22 mph94%29.82 "Hg1 mi
3:35 PM55 °FLow clouds.20 mph88%29.82 "Hg1 mi
3:15 PM55 °FLow clouds.26 mph88%29.84 "Hg1 mi
2:55 PM55 °FLow clouds.24 mph88%29.85 "Hg2 mi
2:35 PM55 °FLow clouds.24 mph88%29.86 "Hg3 mi
2:15 PM55 °FMostly cloudy.25 mph88%29.88 "Hg3 mi
1:55 PM55 °FMostly cloudy.29 mph88%29.87 "Hg2 mi
1:35 PM55 °FMostly cloudy.26 mph88%29.89 "Hg4 mi
1:15 PM57 °FMostly cloudy.25 mph88%29.90 "Hg8 mi
12:55 PM55 °FLow clouds.24 mph94%29.91 "Hg3 mi
12:35 PM55 °FLow clouds.23 mph94%29.91 "Hg8 mi
12:15 PM57 °FLow clouds.22 mph88%29.91 "Hg2 mi
11:55 AM57 °FLow clouds.23 mph88%29.92 "Hg3 mi
11:35 AM57 °FLow clouds.18 mph88%29.93 "Hg2 mi
11:15 AM57 °FLow clouds.20 mph88%29.93 "Hg2 mi
10:15 AM57 °FLow clouds.20 mph88%29.94 "Hg7 mi
Weather by CustomWeather, © 2014

See weather overviewHow to use our weather pages